Time,TemperatureF,DewpointF,PressureIn,WindDirection,WindDirectionDegrees,WindSpeedMPH,WindSpeedGustMPH,Humidity,HourlyPrecipIn,Conditions,Clouds,dailyrainin,SoftwareType,DateUTC
2013-03-17 00:00:00,41.2,33.2,29.76,West,279,0.0,0.0,73,0.00,,---,0.00,VWS V14.01,2013-03-17 06:00:00,
2013-03-17 00:05:00,41.4,33.1,29.77,West,279,0.0,0.0,72,0.00,,---,0.00,VWS V14.01,2013-03-17 06:05:00,
2013-03-17 00:10:00,41.4,32.7,29.76,West,279,0.0,0.0,71,0.00,,---,0.00,VWS V14.01,2013-03-17 06:10:00,
2013-03-17 00:15:00,41.4,32.7,29.76,West,279,0.0,0.0,71,0.00,,---,0.00,VWS V14.01,2013-03-17 06:15:00,
2013-03-17 00:20:00,41.3,32.6,29.76,West,279,0.0,0.0,71,0.00,,---,0.00,VWS V14.01,2013-03-17 06:20:00,
2013-03-17 00:25:00,41.1,32.4,29.76,West,279,0.0,0.0,71,0.00,,---,0.00,VWS V14.01,2013-03-17 06:25:00,
2013-03-17 00:30:00,41.0,32.7,29.76,West,279,0.0,0.0,72,0.00,,---,0.00,VWS V14.01,2013-03-17 06:30:00,
2013-03-17 00:35:00,40.8,32.5,29.76,West,279,0.0,0.0,72,0.00,,---,0.00,VWS V14.01,2013-03-17 06:35:00,
2013-03-17 00:40:00,40.7,32.7,29.75,West,279,0.0,0.0,73,0.00,,---,0.00,VWS V14.01,2013-03-17 06:40:00,
2013-03-17 00:45:00,40.5,32.5,29.75,West,279,0.0,0.0,73,0.00,,---,0.00,VWS V14.01,2013-03-17 06:45:00,
2013-03-17 00:50:00,40.3,32.3,29.75,West,279,0.0,0.0,73,0.00,,---,0.00,VWS V14.01,2013-03-17 06:50:00,
2013-03-17 00:55:00,40.1,32.5,29.75,West,279,0.0,0.0,74,0.00,,---,0.00,VWS V14.01,2013-03-17 06:55:00,
2013-03-17 01:00:00,39.9,32.3,29.75,West,279,0.0,0.0,74,0.00,,---,0.00,VWS V14.01,2013-03-17 07:00:00,
2013-03-17 01:05:00,39.7,32.4,29.75,West,279,0.0,0.0,75,0.00,,---,0.00,VWS V14.01,2013-03-17 07:05:00,
2013-03-17 01:10:00,39.5,32.2,29.75,West,279,0.0,0.0,75,0.00,,---,0.00,VWS V14.01,2013-03-17 07:10:00,
2013-03-17 01:15:00,39.4,32.5,29.75,West,279,0.0,0.0,76,0.00,,---,0.00,VWS V14.01,2013-03-17 07:15:00,
2013-03-17 01:20:00,39.3,32.4,29.75,West,279,0.0,0.0,76,0.00,,---,0.00,VWS V14.01,2013-03-17 07:20:00,
2013-03-17 01:25:00,39.3,32.4,29.75,West,279,0.0,0.0,76,0.00,,---,0.00,VWS V14.01,2013-03-17 07:25:00,
2013-03-17 01:30:00,39.2,32.3,29.74,West,279,0.0,0.0,76,0.00,,---,0.00,VWS V14.01,2013-03-17 07:30:00,
2013-03-17 01:35:00,39.0,32.1,29.75,West,279,0.0,0.0,76,0.00,,---,0.00,VWS V14.01,2013-03-17 07:35:00,
2013-03-17 01:40:00,38.9,32.0,29.74,West,279,0.0,0.0,76,0.00,,---,0.00,VWS V14.01,2013-03-17 07:40:00,
2013-03-17 01:45:00,38.7,31.8,29.74,West,279,0.0,0.0,76,0.00,,---,0.00,VWS V14.01,2013-03-17 07:45:00,
2013-03-17 01:50:00,38.6,31.7,29.74,West,279,0.0,0.0,76,0.00,,---,0.00,VWS V14.01,2013-03-17 07:50:00,
2013-03-17 01:54:00,38.6,31.7,29.74,West,279,0.0,0.0,76,0.00,,---,0.00,VWS V14.01,2013-03-17 07:54:00,
2013-03-17 01:59:00,38.4,31.8,29.74,West,279,0.0,0.0,77,0.00,,---,0.00,VWS V14.01,2013-03-17 07:59:00,
2013-03-17 02:04:00,38.3,31.7,29.74,West,279,0.0,0.0,77,0.00,,---,0.00,VWS V14.01,2013-03-17 08:04:00,
2013-03-17 02:09:00,38.2,31.6,29.74,West,279,0.0,0.0,77,0.00,,---,0.00,VWS V14.01,2013-03-17 08:09:00,
2013-03-17 02:14:00,38.0,31.4,29.74,West,279,0.0,0.0,77,0.00,,---,0.00,VWS V14.01,2013-03-17 08:14:00,
2013-03-17 02:19:00,37.9,31.4,29.73,West,279,0.0,0.0,77,0.00,,---,0.00,VWS V14.01,2013-03-17 08:19:00,
2013-03-17 02:24:00,37.8,31.2,29.73,West,279,0.0,0.0,77,0.00,,---,0.00,VWS V14.01,2013-03-17 08:24:00,
2013-03-17 02:29:00,37.6,31.4,29.73,West,279,0.0,0.0,78,0.00,,---,0.00,VWS V14.01,2013-03-17 08:29:00,
2013-03-17 02:34:00,37.4,31.2,29.73,West,279,0.0,0.0,78,0.00,,---,0.00,VWS V14.01,2013-03-17 08:34:00,
2013-03-17 02:39:00,37.2,31.0,29.73,West,279,0.0,0.0,78,0.00,,---,0.00,VWS V14.01,2013-03-17 08:39:00,
2013-03-17 02:44:00,37.1,31.2,29.73,West,279,0.0,0.0,79,0.00,,---,0.00,VWS V14.01,2013-03-17 08:44:00,
2013-03-17 02:49:00,37.1,30.9,29.73,West,279,0.0,0.0,78,0.00,,---,0.00,VWS V14.01,2013-03-17 08:49:00,
2013-03-17 02:54:00,37.1,30.9,29.73,West,279,0.0,0.0,78,0.00,,---,0.00,VWS V14.01,2013-03-17 08:54:00,
2013-03-17 02:59:00,37.0,30.8,29.73,West,279,0.0,0.0,78,0.00,,---,0.00,VWS V14.01,2013-03-17 08:59:00,
2013-03-17 03:04:00,37.1,30.9,29.73,West,279,0.0,0.0,78,0.00,,---,0.00,VWS V14.01,2013-03-17 09:04:00,
2013-03-17 03:09:00,37.0,30.5,29.73,West,279,0.0,0.0,77,0.00,,---,0.00,VWS V14.01,2013-03-17 09:09:00,
2013-03-17 03:14:00,36.9,30.4,29.73,West,279,0.0,0.0,77,0.00,,---,0.00,VWS V14.01,2013-03-17 09:14:00,
2013-03-17 03:19:00,36.8,30.6,29.73,West,279,0.0,0.0,78,0.00,,---,0.00,VWS V14.01,2013-03-17 09:19:00,
2013-03-17 03:24:00,36.6,30.1,29.73,West,279,0.0,0.0,77,0.00,,---,0.00,VWS V14.01,2013-03-17 09:24:00,
2013-03-17 03:29:00,36.5,30.3,29.73,West,279,0.0,0.0,78,0.00,,---,0.00,VWS V14.01,2013-03-17 09:29:00,
2013-03-17 03:34:00,36.4,30.2,29.72,West,279,0.0,0.0,78,0.00,,---,0.00,VWS V14.01,2013-03-17 09:34:00,
2013-03-17 03:39:00,36.3,30.1,29.72,West,279,0.0,0.0,78,0.00,,---,0.00,VWS V14.01,2013-03-17 09:39:00,
2013-03-17 03:44:00,36.3,30.1,29.72,West,279,0.0,0.0,78,0.00,,---,0.00,VWS V14.01,2013-03-17 09:44:00,
2013-03-17 03:49:00,36.2,30.0,29.72,West,279,0.0,0.0,78,0.00,,---,0.00,VWS V14.01,2013-03-17 09:49:00,
2013-03-17 03:54:00,36.1,29.9,29.71,West,279,0.0,0.0,78,0.00,,---,0.00,VWS V14.01,2013-03-17 09:54:00,
2013-03-17 03:59:00,36.1,29.9,29.71,West,279,0.0,0.0,78,0.00,,---,0.00,VWS V14.01,2013-03-17 09:59:00,
2013-03-17 04:04:00,36.0,29.8,29.71,West,279,0.0,0.0,78,0.00,,---,0.00,VWS V14.01,2013-03-17 10:04:00,
2013-03-17 04:09:00,35.9,29.7,29.71,West,279,0.0,0.0,78,0.00,,---,0.00,VWS V14.01,2013-03-17 10:09:00,
2013-03-17 04:14:00,35.9,29.7,29.71,West,279,0.0,0.0,78,0.00,,---,0.00,VWS V14.01,2013-03-17 10:14:00,
2013-03-17 04:19:00,36.0,29.5,29.71,West,279,0.0,0.0,77,0.00,,---,0.00,VWS V14.01,2013-03-17 10:19:00,
2013-03-17 04:24:00,36.0,29.5,29.71,West,279,0.0,0.0,77,0.00,,---,0.00,VWS V14.01,2013-03-17 10:24:00,
2013-03-17 04:29:00,36.0,29.5,29.71,West,279,0.0,0.0,77,0.00,,---,0.00,VWS V14.01,2013-03-17 10:29:00,
2013-03-17 04:34:00,35.9,29.1,29.71,West,279,0.0,0.0,76,0.00,,---,0.00,VWS V14.01,2013-03-17 10:34:00,
2013-03-17 04:39:00,35.7,28.9,29.70,West,279,0.0,0.0,76,0.00,,---,0.00,VWS V14.01,2013-03-17 10:39:00,
2013-03-17 04:44:00,35.6,28.8,29.70,West,279,0.0,0.0,76,0.00,,---,0.00,VWS V14.01,2013-03-17 10:44:00,
2013-03-17 04:49:00,35.4,28.9,29.70,West,279,0.0,0.0,77,0.00,,---,0.00,VWS V14.01,2013-03-17 10:49:00,
2013-03-17 04:54:00,35.3,28.8,29.70,West,279,0.0,0.0,77,0.00,,---,0.00,VWS V14.01,2013-03-17 10:54:00,
2013-03-17 04:59:00,35.1,28.6,29.70,West,279,0.0,0.0,77,0.00,,---,0.00,VWS V14.01,2013-03-17 10:59:00,
2013-03-17 05:04:00,35.0,28.5,29.70,West,279,0.0,0.0,77,0.00,,---,0.00,VWS V14.01,2013-03-17 11:04:00,
2013-03-17 05:09:00,34.8,28.3,29.70,West,279,0.0,0.0,77,0.00,,---,0.00,VWS V14.01,2013-03-17 11:09:00,
2013-03-17 05:14:00,34.8,28.3,29.70,West,279,0.0,0.0,77,0.00,,---,0.00,VWS V14.01,2013-03-17 11:14:00,
2013-03-17 05:19:00,35.0,28.5,29.70,West,279,0.0,0.0,77,0.00,,---,0.00,VWS V14.01,2013-03-17 11:19:00,
2013-03-17 05:24:00,35.4,28.9,29.69,West,277,0.0,2.0,77,0.00,,---,0.00,VWS V14.01,2013-03-17 11:24:00,
2013-03-17 05:29:00,35.8,29.0,29.69,West,278,0.0,0.0,76,0.00,,---,0.00,VWS V14.01,2013-03-17 11:29:00,
2013-03-17 05:34:00,35.9,28.8,29.69,West,278,0.0,0.0,75,0.00,,---,0.00,VWS V14.01,2013-03-17 11:34:00,
2013-03-17 05:39:00,36.1,28.6,29.69,West,278,0.0,0.0,74,0.00,,---,0.00,VWS V14.01,2013-03-17 11:39:00,
2013-03-17 05:44:00,36.1,28.6,29.69,West,277,0.0,0.0,74,0.00,,---,0.00,VWS V14.01,2013-03-17 11:44:00,
2013-03-17 05:49:00,35.9,28.4,29.69,West,277,0.0,0.0,74,0.00,,---,0.00,VWS V14.01,2013-03-17 11:49:00,
2013-03-17 05:54:00,35.7,28.2,29.69,West,277,0.0,0.0,74,0.00,,---,0.00,VWS V14.01,2013-03-17 11:54:00,
2013-03-17 05:59:00,35.4,28.0,29.69,West,278,0.0,0.0,74,0.00,,---,0.00,VWS V14.01,2013-03-17 11:59:00,
2013-03-17 06:04:00,35.2,27.8,29.69,West,278,0.0,0.0,74,0.00,,---,0.00,VWS V14.01,2013-03-17 12:04:00,
2013-03-17 06:09:00,34.9,27.8,29.69,West,278,0.0,0.0,75,0.00,,---,0.00,VWS V14.01,2013-03-17 12:09:00,
2013-03-17 06:14:00,34.5,27.4,29.69,West,278,0.0,0.0,75,0.00,,---,0.00,VWS V14.01,2013-03-17 12:14:00,
2013-03-17 06:19:00,34.4,27.6,29.68,West,278,0.0,0.0,76,0.00,,---,0.00,VWS V14.01,2013-03-17 12:19:00,
2013-03-17 06:24:00,34.2,27.4,29.68,West,278,0.0,0.0,76,0.00,,---,0.00,VWS V14.01,2013-03-17 12:24:00,
2013-03-17 06:29:00,34.1,27.7,29.69,West,277,0.0,0.0,77,0.00,,---,0.00,VWS V14.01,2013-03-17 12:29:00,
2013-03-17 06:34:00,34.4,27.6,29.68,West,277,0.0,4.0,76,0.00,,---,0.00,VWS V14.01,2013-03-17 12:34:00,
2013-03-17 06:39:00,35.2,27.4,29.67,West,276,0.0,0.0,73,0.00,,---,0.00,VWS V14.01,2013-03-17 12:39:00,
2013-03-17 06:44:00,36.5,27.7,29.68,SW,236,1.0,3.0,70,0.00,,---,0.00,VWS V14.01,2013-03-17 12:44:00,
2013-03-17 06:49:00,37.6,27.3,29.67,SW,234,0.0,0.0,66,0.00,,---,0.00,VWS V14.01,2013-03-17 12:49:00,
2013-03-17 06:54:00,38.2,27.5,29.67,SW,234,0.0,7.0,65,0.00,,---,0.00,VWS V14.01,2013-03-17 12:54:00,
2013-03-17 06:59:00,38.4,27.3,29.66,SW,232,0.0,0.0,64,0.00,,---,0.00,VWS V14.01,2013-03-17 12:59:00,
2013-03-17 07:04:00,38.5,27.0,29.66,SW,232,0.0,0.0,63,0.00,,---,0.00,VWS V14.01,2013-03-17 13:04:00,
2013-03-17 07:09:00,38.6,27.1,29.67,SW,225,0.0,0.0,63,0.00,,---,0.00,VWS V14.01,2013-03-17 13:09:00,
2013-03-17 07:14:00,38.9,27.0,29.66,SW,223,0.0,2.0,62,0.00,,---,0.00,VWS V14.01,2013-03-17 13:14:00,
2013-03-17 07:19:00,39.2,26.9,29.66,SW,223,0.0,0.0,61,0.00,,---,0.00,VWS V14.01,2013-03-17 13:19:00,
2013-03-17 07:24:00,39.6,26.9,29.66,SSW,204,0.0,0.0,60,0.00,,---,0.00,VWS V14.01,2013-03-17 13:24:00,
2013-03-17 07:29:00,40.0,26.8,29.66,SSW,198,0.0,0.0,59,0.00,,---,0.00,VWS V14.01,2013-03-17 13:29:00,
2013-03-17 07:34:00,40.4,26.8,29.67,SE,128,3.0,3.0,58,0.00,,---,0.00,VWS V14.01,2013-03-17 13:34:00,
2013-03-17 07:39:00,40.9,26.9,29.66,SSW,213,4.0,5.0,57,0.00,,---,0.00,VWS V14.01,2013-03-17 13:39:00,
2013-03-17 07:44:00,41.3,26.8,29.66,SSW,202,0.0,2.0,56,0.00,,---,0.00,VWS V14.01,2013-03-17 13:44:00,
2013-03-17 07:49:00,41.5,27.0,29.66,SSW,197,0.0,2.0,56,0.00,,---,0.00,VWS V14.01,2013-03-17 13:49:00,
2013-03-17 07:54:00,41.8,26.8,29.66,SSW,211,0.0,0.0,55,0.00,,---,0.00,VWS V14.01,2013-03-17 13:54:00,
2013-03-17 07:59:00,41.9,26.9,29.66,SSW,211,0.0,0.0,55,0.00,,---,0.00,VWS V14.01,2013-03-17 13:59:00,
2013-03-17 08:04:00,42.1,27.1,29.66,SSW,202,0.0,0.0,55,0.00,,---,0.00,VWS V14.01,2013-03-17 14:04:00,
2013-03-17 08:09:00,42.4,27.0,29.66,SSW,202,1.0,1.0,54,0.00,,---,0.00,VWS V14.01,2013-03-17 14:09:00,
2013-03-17 08:14:00,42.8,27.3,29.66,SE,140,0.0,0.0,54,0.00,,---,0.00,VWS V14.01,2013-03-17 14:14:00,
2013-03-17 08:19:00,43.0,27.5,29.66,SE,140,0.0,0.0,54,0.00,,---,0.00,VWS V14.01,2013-03-17 14:19:00,
2013-03-17 08:24:00,43.5,27.5,29.66,SSW,199,0.0,0.0,53,0.00,,---,0.00,VWS V14.01,2013-03-17 14:24:00,
2013-03-17 08:29:00,44.2,27.7,29.66,SSW,194,3.0,3.0,52,0.00,,---,0.00,VWS V14.01,2013-03-17 14:29:00,
2013-03-17 08:34:00,45.0,27.5,29.66,SW,226,0.0,0.0,50,0.00,,---,0.00,VWS V14.01,2013-03-17 14:34:00,
2013-03-17 08:39:00,45.4,27.4,29.66,SW,223,0.0,0.0,49,0.00,,---,0.00,VWS V14.01,2013-03-17 14:39:00,
2013-03-17 08:44:00,46.1,27.0,29.67,SSW,205,2.0,7.0,47,0.00,,---,0.00,VWS V14.01,2013-03-17 14:44:00,
2013-03-17 08:49:00,46.7,27.0,29.66,SW,215,0.0,0.0,46,0.00,,---,0.00,VWS V14.01,2013-03-17 14:49:00,
2013-03-17 08:54:00,47.0,27.3,29.67,SSW,211,3.0,4.0,46,0.00,,---,0.00,VWS V14.01,2013-03-17 14:54:00,
2013-03-17 08:59:00,47.4,27.1,29.66,SSW,209,2.0,3.0,45,0.00,,---,0.00,VWS V14.01,2013-03-17 14:59:00,
2013-03-17 09:04:00,47.5,26.7,29.66,SSW,209,0.0,1.0,44,0.00,,---,0.00,VWS V14.01,2013-03-17 15:04:00,
2013-03-17 09:09:00,47.6,26.8,29.65,SSW,209,0.0,1.0,44,0.00,,---,0.00,VWS V14.01,2013-03-17 15:09:00,
2013-03-17 09:14:00,47.7,27.4,29.65,SSW,209,1.0,2.0,45,0.00,,---,0.00,VWS V14.01,2013-03-17 15:14:00,
2013-03-17 09:19:00,48.2,27.9,29.65,SSW,209,0.0,0.0,45,0.00,,---,0.00,VWS V14.01,2013-03-17 15:19:00,
2013-03-17 09:24:00,48.5,27.0,29.64,SSW,213,1.0,2.0,43,0.00,,---,0.00,VWS V14.01,2013-03-17 15:24:00,
2013-03-17 09:29:00,48.6,27.1,29.64,SSW,213,0.0,0.0,43,0.00,,---,0.00,VWS V14.01,2013-03-17 15:29:00,
2013-03-17 09:34:00,48.9,27.4,29.64,SSW,213,0.0,0.0,43,0.00,,---,0.00,VWS V14.01,2013-03-17 15:34:00,
2013-03-17 09:39:00,49.6,28.0,29.64,WSW,252,0.0,3.0,43,0.00,,---,0.00,VWS V14.01,2013-03-17 15:39:00,
2013-03-17 09:44:00,50.4,27.0,29.64,WSW,252,0.0,0.0,40,0.00,,---,0.00,VWS V14.01,2013-03-17 15:44:00,
2013-03-17 09:49:00,50.6,27.2,29.64,SSW,211,2.0,3.0,40,0.00,,---,0.00,VWS V14.01,2013-03-17 15:49:00,
2013-03-17 09:54:00,50.6,27.2,29.64,SSW,211,0.0,0.0,40,0.00,,---,0.00,VWS V14.01,2013-03-17 15:54:00,
2013-03-17 09:59:00,50.6,27.2,29.64,SSW,211,0.0,0.0,40,0.00,,---,0.00,VWS V14.01,2013-03-17 15:59:00,
2013-03-17 10:04:00,50.8,26.8,29.64,SSW,211,0.0,0.0,39,0.00,,---,0.00,VWS V14.01,2013-03-17 16:04:00,
2013-03-17 10:09:00,50.8,27.4,29.64,SSW,211,0.0,0.0,40,0.00,,---,0.00,VWS V14.01,2013-03-17 16:09:00,
2013-03-17 10:14:00,51.0,26.9,29.64,SW,223,0.0,0.0,39,0.00,,---,0.00,VWS V14.01,2013-03-17 16:14:00,
2013-03-17 10:19:00,51.1,26.4,29.64,WSW,248,0.0,0.0,38,0.00,,---,0.00,VWS V14.01,2013-03-17 16:19:00,
2013-03-17 10:24:00,51.4,27.3,29.64,WSW,246,0.0,0.0,39,0.00,,---,0.00,VWS V14.01,2013-03-17 16:24:00,
2013-03-17 10:29:00,51.9,26.5,29.64,West,263,0.0,1.0,37,0.00,,---,0.00,VWS V14.01,2013-03-17 16:29:00,
2013-03-17 10:34:00,52.4,26.9,29.64,SW,214,1.0,2.0,37,0.00,,---,0.00,VWS V14.01,2013-03-17 16:34:00,
2013-03-17 10:39:00,52.9,26.7,29.64,WNW,298,2.0,2.0,36,0.00,,---,0.00,VWS V14.01,2013-03-17 16:39:00,
2013-03-17 10:44:00,53.7,27.4,29.63,WNW,287,0.0,0.0,36,0.00,,---,0.00,VWS V14.01,2013-03-17 16:44:00,
2013-03-17 10:49:00,54.2,26.5,29.63,SW,226,1.0,5.0,34,0.00,,---,0.00,VWS V14.01,2013-03-17 16:49:00,
2013-03-17 10:54:00,54.6,26.8,29.62,NW,325,3.0,4.0,34,0.00,,---,0.00,VWS V14.01,2013-03-17 16:54:00,
2013-03-17 10:59:00,54.9,26.4,29.62,WNW,295,1.0,3.0,33,0.00,,---,0.00,VWS V14.01,2013-03-17 16:59:00,
2013-03-17 11:04:00,55.1,25.8,29.62,West,277,1.0,5.0,32,0.00,,---,0.00,VWS V14.01,2013-03-17 17:04:00,
2013-03-17 11:09:00,55.1,25.8,29.62,West,272,0.0,3.0,32,0.00,,---,0.00,VWS V14.01,2013-03-17 17:09:00,
2013-03-17 11:14:00,55.2,25.9,29.61,West,271,4.0,6.0,32,0.00,,---,0.00,VWS V14.01,2013-03-17 17:14:00,
2013-03-17 11:19:00,54.9,26.4,29.61,WNW,290,4.0,4.0,33,0.00,,---,0.00,VWS V14.01,2013-03-17 17:19:00,
2013-03-17 11:24:00,54.8,26.3,29.60,West,269,3.0,10.0,33,0.00,,---,0.00,VWS V14.01,2013-03-17 17:24:00,
2013-03-17 11:29:00,54.4,26.6,29.59,West,275,0.0,0.0,34,0.00,,---,0.00,VWS V14.01,2013-03-17 17:29:00,
2013-03-17 11:34:00,54.3,26.5,29.59,SW,221,0.0,0.0,34,0.00,,---,0.00,VWS V14.01,2013-03-17 17:34:00,
2013-03-17 11:39:00,54.3,27.2,29.59,WSW,252,1.0,5.0,35,0.00,,---,0.00,VWS V14.01,2013-03-17 17:39:00,
2013-03-17 11:44:00,54.4,27.3,29.58,SW,214,4.0,4.0,35,0.00,,---,0.00,VWS V14.01,2013-03-17 17:44:00,
2013-03-17 11:49:00,54.8,27.7,29.58,WSW,257,5.0,5.0,35,0.00,,---,0.00,VWS V14.01,2013-03-17 17:49:00,
2013-03-17 11:54:00,55.2,27.3,29.58,NW,311,1.0,2.0,34,0.00,,---,0.00,VWS V14.01,2013-03-17 17:54:00,
2013-03-17 11:59:00,55.9,26.5,29.58,West,270,4.0,5.0,32,0.00,,---,0.00,VWS V14.01,2013-03-17 17:59:00,
2013-03-17 12:04:00,56.4,24.6,29.58,WSW,254,3.0,5.0,29,0.00,,---,0.00,VWS V14.01,2013-03-17 18:04:00,
2013-03-17 12:09:00,56.2,25.2,29.58,West,279,1.0,3.0,30,0.00,,---,0.00,VWS V14.01,2013-03-17 18:09:00,
2013-03-17 12:14:00,55.6,25.5,29.58,NNW,329,1.0,3.0,31,0.00,,---,0.00,VWS V14.01,2013-03-17 18:14:00,
2013-03-17 12:19:00,55.8,25.6,29.58,WNW,284,3.0,6.0,31,0.00,,---,0.00,VWS V14.01,2013-03-17 18:19:00,
2013-03-17 12:24:00,56.2,26.0,29.57,WNW,296,3.0,5.0,31,0.00,,---,0.00,VWS V14.01,2013-03-17 18:24:00,
2013-03-17 12:29:00,56.3,26.1,29.56,NW,313,1.0,2.0,31,0.00,,---,0.00,VWS V14.01,2013-03-17 18:29:00,
2013-03-17 12:34:00,56.8,27.3,29.56,WNW,303,2.0,3.0,32,0.00,,---,0.00,VWS V14.01,2013-03-17 18:34:00,
2013-03-17 12:39:00,56.9,26.6,29.55,NW,306,4.0,5.0,31,0.00,,---,0.00,VWS V14.01,2013-03-17 18:39:00,
2013-03-17 12:44:00,57.0,26.7,29.54,NW,304,2.0,3.0,31,0.00,,---,0.00,VWS V14.01,2013-03-17 18:44:00,
2013-03-17 12:49:00,57.7,27.3,29.54,WNW,298,0.0,3.0,31,0.00,,---,0.00,VWS V14.01,2013-03-17 18:49:00,
2013-03-17 12:54:00,58.2,26.9,29.54,WNW,298,0.0,0.0,30,0.00,,---,0.00,VWS V14.01,2013-03-17 18:54:00,
2013-03-17 12:59:00,58.7,27.4,29.54,WNW,298,2.0,4.0,30,0.00,,---,0.00,VWS V14.01,2013-03-17 18:59:00,
2013-03-17 13:04:00,58.9,26.7,29.53,NW,316,0.0,0.0,29,0.00,,---,0.00,VWS V14.01,2013-03-17 19:04:00,
2013-03-17 13:09:00,59.0,27.6,29.53,NW,313,3.0,3.0,30,0.00,,---,0.00,VWS V14.01,2013-03-17 19:09:00,
2013-03-17 13:14:00,58.8,26.6,29.53,WNW,296,0.0,2.0,29,0.00,,---,0.00,VWS V14.01,2013-03-17 19:14:00,
2013-03-17 13:19:00,58.6,27.3,29.52,NW,306,0.0,2.0,30,0.00,,---,0.00,VWS V14.01,2013-03-17 19:19:00,
2013-03-17 13:24:00,58.6,26.5,29.52,NW,322,0.0,1.0,29,0.00,,---,0.00,VWS V14.01,2013-03-17 19:24:00,
2013-03-17 13:29:00,58.1,26.0,29.52,WNW,294,2.0,2.0,29,0.00,,---,0.00,VWS V14.01,2013-03-17 19:29:00,
2013-03-17 13:34:00,57.4,22.8,29.52,South,184,5.0,5.0,26,0.00,,---,0.00,VWS V14.01,2013-03-17 19:34:00,
2013-03-17 13:39:00,57.6,20.1,29.52,NNW,327,4.0,5.0,23,0.00,,---,0.00,VWS V14.01,2013-03-17 19:39:00,
2013-03-17 13:44:00,58.3,20.7,29.52,NW,307,6.0,8.0,23,0.00,,---,0.00,VWS V14.01,2013-03-17 19:44:00,
2013-03-17 13:49:00,58.4,20.8,29.51,WSW,245,0.0,1.0,23,0.00,,---,0.00,VWS V14.01,2013-03-17 19:49:00,
2013-03-17 13:54:00,59.0,16.8,29.50,West,269,6.0,13.0,19,0.00,,---,0.00,VWS V14.01,2013-03-17 19:54:00,
2013-03-17 13:59:00,59.0,19.1,29.50,WSW,253,3.0,3.0,21,0.00,,---,0.00,VWS V14.01,2013-03-17 19:59:00,
2013-03-17 14:04:00,59.1,18.1,29.50,SW,221,1.0,7.0,20,0.00,,---,0.00,VWS V14.01,2013-03-17 20:04:00,
2013-03-17 14:09:00,59.5,18.4,29.49,West,275,3.0,8.0,20,0.00,,---,0.00,VWS V14.01,2013-03-17 20:09:00,
2013-03-17 14:14:00,59.7,18.6,29.49,NW,315,4.0,5.0,20,0.00,,---,0.00,VWS V14.01,2013-03-17 20:14:00,
2013-03-17 14:19:00,59.9,17.6,29.50,WSW,241,15.0,15.0,19,0.00,,---,0.00,VWS V14.01,2013-03-17 20:19:00,
2013-03-17 14:24:00,59.9,17.6,29.50,NNW,331,7.0,12.0,19,0.00,,---,0.00,VWS V14.01,2013-03-17 20:24:00,
2013-03-17 14:29:00,59.1,18.1,29.49,WSW,257,5.0,14.0,20,0.00,,---,0.00,VWS V14.01,2013-03-17 20:29:00,
2013-03-17 14:34:00,59.0,19.1,29.50,NW,317,8.0,12.0,21,0.00,,---,0.00,VWS V14.01,2013-03-17 20:34:00,
2013-03-17 14:39:00,58.7,16.6,29.51,West,276,8.0,12.0,19,0.00,,---,0.00,VWS V14.01,2013-03-17 20:39:00,
2013-03-17 14:44:00,58.3,17.4,29.50,NW,317,5.0,7.0,20,0.00,,---,0.00,VWS V14.01,2013-03-17 20:44:00,
2013-03-17 14:49:00,58.2,17.3,29.50,WNW,286,5.0,11.0,20,0.00,,---,0.00,VWS V14.01,2013-03-17 20:49:00,
2013-03-17 14:54:00,58.2,17.3,29.50,NW,306,7.0,7.0,20,0.00,,---,0.00,VWS V14.01,2013-03-17 20:54:00,
2013-03-17 14:59:00,58.5,17.6,29.50,WNW,291,2.0,7.0,20,0.00,,---,0.00,VWS V14.01,2013-03-17 20:59:00,
2013-03-17 15:04:00,58.6,17.7,29.50,NW,309,12.0,12.0,20,0.00,,---,0.00,VWS V14.01,2013-03-17 21:04:00,
2013-03-17 15:09:00,58.2,18.5,29.50,NNW,327,5.0,5.0,21,0.00,,---,0.00,VWS V14.01,2013-03-17 21:09:00,
2013-03-17 15:14:00,58.0,18.3,29.50,WNW,289,5.0,6.0,21,0.00,,---,0.00,VWS V14.01,2013-03-17 21:14:00,
2013-03-17 15:19:00,58.0,18.3,29.50,WNW,299,8.0,8.0,21,0.00,,---,0.00,VWS V14.01,2013-03-17 21:19:00,
2013-03-17 15:24:00,58.7,18.9,29.50,WNW,283,2.0,2.0,21,0.00,,---,0.00,VWS V14.01,2013-03-17 21:24:00,
2013-03-17 15:29:00,59.0,18.0,29.50,WSW,243,10.0,11.0,20,0.00,,---,0.00,VWS V14.01,2013-03-17 21:29:00,
2013-03-17 15:34:00,58.7,17.8,29.50,WNW,302,3.0,4.0,20,0.00,,---,0.00,VWS V14.01,2013-03-17 21:34:00,
2013-03-17 15:39:00,58.7,20.0,29.49,WSW,251,10.0,11.0,22,0.00,,---,0.00,VWS V14.01,2013-03-17 21:39:00,
2013-03-17 15:44:00,58.2,18.5,29.50,SW,227,5.0,10.0,21,0.00,,---,0.00,VWS V14.01,2013-03-17 21:44:00,
2013-03-17 15:49:00,57.8,19.2,29.50,WNW,300,11.0,11.0,22,0.00,,---,0.00,VWS V14.01,2013-03-17 21:49:00,
2013-03-17 15:54:00,57.8,19.2,29.49,West,259,6.0,10.0,22,0.00,,---,0.00,VWS V14.01,2013-03-17 21:54:00,
2013-03-17 15:59:00,57.9,19.3,29.49,West,271,1.0,2.0,22,0.00,,---,0.00,VWS V14.01,2013-03-17 21:59:00,
2013-03-17 16:04:00,57.9,19.3,29.50,SW,221,5.0,8.0,22,0.00,,---,0.00,VWS V14.01,2013-03-17 22:04:00,
2013-03-17 16:09:00,58.0,19.4,29.50,SW,227,4.0,4.0,22,0.00,,---,0.00,VWS V14.01,2013-03-17 22:09:00,
2013-03-17 16:14:00,57.8,20.3,29.50,West,269,4.0,8.0,23,0.00,,---,0.00,VWS V14.01,2013-03-17 22:14:00,
2013-03-17 16:19:00,57.4,19.9,29.51,West,268,5.0,6.0,23,0.00,,---,0.00,VWS V14.01,2013-03-17 22:19:00,
2013-03-17 16:24:00,57.8,20.3,29.51,SW,229,7.0,15.0,23,0.00,,---,0.00,VWS V14.01,2013-03-17 22:24:00,
2013-03-17 16:29:00,57.2,20.8,29.52,West,260,3.0,5.0,24,0.00,,---,0.00,VWS V14.01,2013-03-17 22:29:00,
2013-03-17 16:34:00,56.8,21.4,29.52,SW,227,4.0,4.0,25,0.00,,---,0.00,VWS V14.01,2013-03-17 22:34:00,
2013-03-17 16:39:00,56.8,21.4,29.52,NW,309,5.0,7.0,25,0.00,,---,0.00,VWS V14.01,2013-03-17 22:39:00,
2013-03-17 16:44:00,56.2,21.8,29.52,NW,310,5.0,7.0,26,0.00,,---,0.00,VWS V14.01,2013-03-17 22:44:00,
2013-03-17 16:49:00,55.3,23.6,29.53,NW,311,6.0,6.0,29,0.00,,---,0.00,VWS V14.01,2013-03-17 22:49:00,
2013-03-17 16:54:00,54.0,23.3,29.53,WNW,293,4.0,4.0,30,0.00,,---,0.00,VWS V14.01,2013-03-17 22:54:00,
2013-03-17 16:59:00,54.0,24.1,29.54,WNW,291,8.0,11.0,31,0.00,,---,0.00,VWS V14.01,2013-03-17 22:59:00,
2013-03-17 17:04:00,53.8,23.9,29.54,WNW,294,5.0,5.0,31,0.00,,---,0.00,VWS V14.01,2013-03-17 23:04:00,
2013-03-17 17:09:00,53.6,23.7,29.55,NW,315,5.0,10.0,31,0.00,,---,0.00,VWS V14.01,2013-03-17 23:09:00,
2013-03-17 17:14:00,53.2,23.4,29.55,WNW,296,5.0,7.0,31,0.00,,---,0.00,VWS V14.01,2013-03-17 23:14:00,
2013-03-17 17:19:00,52.6,23.6,29.56,NW,307,7.0,7.0,32,0.00,,---,0.00,VWS V14.01,2013-03-17 23:19:00,
2013-03-17 17:24:00,51.9,24.4,29.56,West,266,6.0,10.0,34,0.00,,---,0.00,VWS V14.01,2013-03-17 23:24:00,
2013-03-17 17:29:00,51.1,25.1,29.57,WSW,244,9.0,10.0,36,0.00,,---,0.00,VWS V14.01,2013-03-17 23:29:00,
2013-03-17 17:34:00,50.2,25.0,29.57,NW,304,5.0,5.0,37,0.00,,---,0.00,VWS V14.01,2013-03-17 23:34:00,
2013-03-17 17:39:00,50.0,25.4,29.57,WSW,251,0.0,2.0,38,0.00,,---,0.00,VWS V14.01,2013-03-17 23:39:00,
2013-03-17 17:44:00,49.9,25.3,29.57,West,259,2.0,5.0,38,0.00,,---,0.00,VWS V14.01,2013-03-17 23:44:00,
2013-03-17 17:49:00,49.7,25.1,29.57,West,273,6.0,9.0,38,0.00,,---,0.00,VWS V14.01,2013-03-17 23:49:00,
2013-03-17 17:54:00,49.4,24.9,29.57,SW,224,9.0,9.0,38,0.00,,---,0.00,VWS V14.01,2013-03-17 23:54:00,
2013-03-17 17:59:00,49.2,25.3,29.57,West,275,11.0,11.0,39,0.00,,---,0.00,VWS V14.01,2013-03-17 23:59:00,
2013-03-17 18:04:00,48.8,25.0,29.58,NW,319,9.0,11.0,39,0.00,,---,0.00,VWS V14.01,2013-03-18 00:04:00,
2013-03-17 18:09:00,48.4,25.2,29.59,WNW,299,6.0,6.0,40,0.00,,---,0.00,VWS V14.01,2013-03-18 00:09:00,
2013-03-17 18:14:00,48.0,25.4,29.60,West,273,5.0,5.0,41,0.00,,---,0.00,VWS V14.01,2013-03-18 00:14:00,
2013-03-17 18:19:00,47.3,26.5,29.60,NW,317,7.0,11.0,44,0.00,,---,0.00,VWS V14.01,2013-03-18 00:19:00,
2013-03-17 18:24:00,46.3,26.7,29.60,NW,309,2.0,3.0,46,0.00,,---,0.00,VWS V14.01,2013-03-18 00:24:00,
2013-03-17 18:29:00,45.7,26.6,29.60,NW,312,1.0,3.0,47,0.00,,---,0.00,VWS V14.01,2013-03-18 00:29:00,
2013-03-17 18:34:00,45.3,26.8,29.60,WNW,299,1.0,1.0,48,0.00,,---,0.00,VWS V14.01,2013-03-18 00:34:00,
2013-03-17 18:39:00,44.9,27.4,29.60,NW,307,2.0,3.0,50,0.00,,---,0.00,VWS V14.01,2013-03-18 00:39:00,
2013-03-17 18:44:00,44.4,26.9,29.60,NW,306,0.0,0.0,50,0.00,,---,0.00,VWS V14.01,2013-03-18 00:44:00,
2013-03-17 18:49:00,44.2,26.8,29.60,NW,316,0.0,3.0,50,0.00,,---,0.00,VWS V14.01,2013-03-18 00:49:00,
2013-03-17 18:54:00,44.2,26.3,29.61,WSW,254,1.0,2.0,49,0.00,,---,0.00,VWS V14.01,2013-03-18 00:54:00,
2013-03-17 18:59:00,44.2,25.8,29.62,West,274,0.0,0.0,48,0.00,,---,0.00,VWS V14.01,2013-03-18 00:59:00,
2013-03-17 19:04:00,44.4,25.5,29.62,WSW,252,3.0,5.0,47,0.00,,---,0.00,VWS V14.01,2013-03-18 01:04:00,
2013-03-17 19:09:00,44.5,25.5,29.62,WNW,301,0.0,0.0,47,0.00,,---,0.00,VWS V14.01,2013-03-18 01:09:00,
2013-03-17 19:14:00,44.6,25.1,29.62,West,271,0.0,0.0,46,0.00,,---,0.00,VWS V14.01,2013-03-18 01:14:00,
2013-03-17 19:19:00,44.7,25.2,29.63,NW,317,1.0,2.0,46,0.00,,---,0.00,VWS V14.01,2013-03-18 01:19:00,
2013-03-17 19:24:00,44.8,25.3,29.62,NW,319,0.0,0.0,46,0.00,,---,0.00,VWS V14.01,2013-03-18 01:24:00,
2013-03-17 19:29:00,44.7,25.2,29.63,NW,319,0.0,0.0,46,0.00,,---,0.00,VWS V14.01,2013-03-18 01:29:00,
2013-03-17 19:34:00,44.7,24.7,29.63,WNW,300,0.0,0.0,45,0.00,,---,0.00,VWS V14.01,2013-03-18 01:34:00,
2013-03-17 19:39:00,44.6,24.6,29.63,NW,304,2.0,3.0,45,0.00,,---,0.00,VWS V14.01,2013-03-18 01:39:00,
2013-03-17 19:44:00,44.6,24.6,29.64,NW,304,0.0,0.0,45,0.00,,---,0.00,VWS V14.01,2013-03-18 01:44:00,
2013-03-17 19:49:00,44.6,23.5,29.65,NW,310,1.0,1.0,43,0.00,,---,0.00,VWS V14.01,2013-03-18 01:49:00,
2013-03-17 19:54:00,44.6,23.5,29.65,NE,46,2.0,3.0,43,0.00,,---,0.00,VWS V14.01,2013-03-18 01:54:00,
2013-03-17 19:59:00,44.6,23.5,29.65,NW,323,5.0,6.0,43,0.00,,---,0.00,VWS V14.01,2013-03-18 01:59:00,
2013-03-17 20:04:00,44.5,23.4,29.66,West,267,2.0,2.0,43,0.00,,---,0.00,VWS V14.01,2013-03-18 02:04:00,
2013-03-17 20:09:00,44.2,23.7,29.65,WNW,292,5.0,6.0,44,0.00,,---,0.00,VWS V14.01,2013-03-18 02:09:00,
2013-03-17 20:14:00,43.9,24.0,29.66,WNW,294,1.0,3.0,45,0.00,,---,0.00,VWS V14.01,2013-03-18 02:14:00,
2013-03-17 20:19:00,43.6,23.7,29.66,West,281,10.0,10.0,45,0.00,,---,0.00,VWS V14.01,2013-03-18 02:19:00,
2013-03-17 20:24:00,43.3,23.9,29.66,NW,309,2.0,4.0,46,0.00,,---,0.00,VWS V14.01,2013-03-18 02:24:00,
2013-03-17 20:29:00,43.0,24.2,29.67,WNW,300,6.0,10.0,47,0.00,,---,0.00,VWS V14.01,2013-03-18 02:29:00,
2013-03-17 20:34:00,42.8,24.0,29.67,WNW,286,4.0,8.0,47,0.00,,---,0.00,VWS V14.01,2013-03-18 02:34:00,
2013-03-17 20:39:00,42.7,23.9,29.67,WNW,296,5.0,10.0,47,0.00,,---,0.00,VWS V14.01,2013-03-18 02:39:00,
2013-03-17 20:44:00,42.5,23.2,29.68,NW,314,1.0,7.0,46,0.00,,---,0.00,VWS V14.01,2013-03-18 02:44:00,
2013-03-17 20:49:00,42.4,23.1,29.69,West,281,7.0,10.0,46,0.00,,---,0.00,VWS V14.01,2013-03-18 02:49:00,
2013-03-17 20:54:00,42.4,22.6,29.70,NW,307,4.0,5.0,45,0.00,,---,0.00,VWS V14.01,2013-03-18 02:54:00,
2013-03-17 20:59:00,42.4,22.0,29.70,NW,320,0.0,2.0,44,0.00,,---,0.00,VWS V14.01,2013-03-18 02:59:00,
2013-03-17 21:04:00,42.4,22.0,29.69,WSW,248,5.0,7.0,44,0.00,,---,0.00,VWS V14.01,2013-03-18 03:04:00,
2013-03-17 21:09:00,42.3,22.0,29.69,West,268,1.0,4.0,44,0.00,,---,0.00,VWS V14.01,2013-03-18 03:09:00,
2013-03-17 21:14:00,42.2,21.3,29.69,West,279,2.0,9.0,43,0.00,,---,0.00,VWS V14.01,2013-03-18 03:14:00,
2013-03-17 21:19:00,42.0,21.1,29.70,NW,310,3.0,5.0,43,0.00,,---,0.00,VWS V14.01,2013-03-18 03:19:00,
2013-03-17 21:24:00,41.9,21.0,29.72,NW,306,0.0,4.0,43,0.00,,---,0.00,VWS V14.01,2013-03-18 03:24:00,
2013-03-17 21:29:00,41.7,20.9,29.72,WNW,300,2.0,2.0,43,0.00,,---,0.00,VWS V14.01,2013-03-18 03:29:00,
2013-03-17 21:34:00,41.5,20.7,29.73,West,276,2.0,6.0,43,0.00,,---,0.00,VWS V14.01,2013-03-18 03:34:00,
2013-03-17 21:39:00,41.4,20.0,29.74,WNW,292,1.0,3.0,42,0.00,,---,0.00,VWS V14.01,2013-03-18 03:39:00,
2013-03-17 21:44:00,41.2,19.3,29.74,WNW,288,1.0,3.0,41,0.00,,---,0.00,VWS V14.01,2013-03-18 03:44:00,
2013-03-17 21:49:00,41.0,18.5,29.74,WNW,303,0.0,5.0,40,0.00,,---,0.00,VWS V14.01,2013-03-18 03:49:00,
2013-03-17 21:54:00,40.9,19.0,29.74,WNW,302,3.0,9.0,41,0.00,,---,0.00,VWS V14.01,2013-03-18 03:54:00,
2013-03-17 21:59:00,40.6,18.8,29.75,WNW,296,11.0,11.0,41,0.00,,---,0.00,VWS V14.01,2013-03-18 03:59:00,
2013-03-17 22:00:00,40.6,18.2,29.75,NW,309,10.0,10.0,40,0.00,,---,0.00,VWS V14.01,2013-03-18 04:00:00,
2013-03-17 22:05:00,40.4,18.0,29.75,NW,311,3.0,3.0,40,0.00,,---,0.00,VWS V14.01,2013-03-18 04:05:00,
2013-03-17 22:10:00,40.4,17.4,29.76,NW,310,1.0,4.0,39,0.00,,---,0.00,VWS V14.01,2013-03-18 04:10:00,
2013-03-17 22:15:00,40.3,17.3,29.77,WNW,302,5.0,5.0,39,0.00,,---,0.00,VWS V14.01,2013-03-18 04:15:00,
2013-03-17 22:20:00,40.2,17.8,29.77,NW,316,4.0,4.0,40,0.00,,---,0.00,VWS V14.01,2013-03-18 04:20:00,
2013-03-17 22:25:00,40.1,17.7,29.77,WNW,291,4.0,5.0,40,0.00,,---,0.00,VWS V14.01,2013-03-18 04:25:00,
2013-03-17 22:30:00,40.0,17.1,29.77,WNW,299,1.0,3.0,39,0.00,,---,0.00,VWS V14.01,2013-03-18 04:30:00,
2013-03-17 22:35:00,39.8,16.9,29.77,WNW,288,3.0,3.0,39,0.00,,---,0.00,VWS V14.01,2013-03-18 04:35:00,
2013-03-17 22:40:00,39.7,16.8,29.77,NNW,346,1.0,1.0,39,0.00,,---,0.00,VWS V14.01,2013-03-18 04:40:00,
2013-03-17 22:45:00,39.7,15.6,29.77,WNW,286,0.0,0.0,37,0.00,,---,0.00,VWS V14.01,2013-03-18 04:45:00,
2013-03-17 22:50:00,39.6,15.5,29.77,West,272,3.0,3.0,37,0.00,,---,0.00,VWS V14.01,2013-03-18 04:50:00,
2013-03-17 22:55:00,39.4,15.9,29.77,NW,323,2.0,3.0,38,0.00,,---,0.00,VWS V14.01,2013-03-18 04:55:00,
2013-03-17 23:00:00,39.3,15.8,29.77,NW,310,1.0,4.0,38,0.00,,---,0.00,VWS V14.01,2013-03-18 05:00:00,
2013-03-17 23:05:00,39.1,15.0,29.78,NW,317,4.0,12.0,37,0.00,,---,0.00,VWS V14.01,2013-03-18 05:05:00,
2013-03-17 23:10:00,38.9,14.9,29.78,WSW,244,4.0,9.0,37,0.00,,---,0.00,VWS V14.01,2013-03-18 05:10:00,
2013-03-17 23:15:00,38.7,14.7,29.78,WNW,296,5.0,9.0,37,0.00,,---,0.00,VWS V14.01,2013-03-18 05:15:00,
2013-03-17 23:20:00,38.5,15.1,29.79,NW,307,1.0,1.0,38,0.00,,---,0.00,VWS V14.01,2013-03-18 05:20:00,
2013-03-17 23:25:00,38.3,14.9,29.79,WNW,301,2.0,4.0,38,0.00,,---,0.00,VWS V14.01,2013-03-18 05:25:00,
2013-03-17 23:30:00,38.2,15.4,29.79,WNW,298,1.0,10.0,39,0.00,,---,0.00,VWS V14.01,2013-03-18 05:30:00,
2013-03-17 23:35:00,38.1,15.4,29.80,WSW,242,3.0,3.0,39,0.00,,---,0.00,VWS V14.01,2013-03-18 05:35:00,
2013-03-17 23:40:00,38.0,15.3,29.80,WNW,300,3.0,6.0,39,0.00,,---,0.00,VWS V14.01,2013-03-18 05:40:00,
2013-03-17 23:45:00,37.9,15.2,29.80,NW,308,0.0,6.0,39,0.00,,---,0.00,VWS V14.01,2013-03-18 05:45:00,
2013-03-17 23:50:00,37.8,13.9,29.80,NW,306,5.0,10.0,37,0.00,,---,0.00,VWS V14.01,2013-03-18 05:50:00,
2013-03-17 23:55:00,37.9,14.0,29.81,WNW,298,5.0,6.0,37,0.00,,---,0.00,VWS V14.01,2013-03-18 05:55:00,